Regional Weather Roundup
Issued by NWS Green Bay, WI

Home | Current Version | Previous Version | Graphics & Text | Print | Product List | Glossary Off
Versions: 1 2 3 4 5 6 7 8 9 10 11 12 13 14 15 16 17 18 19 20 21 22 23 24 25 26 27 28 29 30 31 32 33 34 35 36 37 38 39 40 41 42 43 44 45 46 47 48 49 50

877
ASUS43 KGRB 101811
RWRGRB

NORTH-CENTRAL AND NORTHEAST WISCONSIN REGIONAL WEATHER ROUNDUP
NATIONAL WEATHER SERVICE GREEN BAY WI
1200 PM CST WED FEB 10 2016

WIZ005-009-010>012-018-019-101900-
NORTH CENTRAL WISCONSIN

CITY           SKY/WX    TMP DP  RH WIND       PRES   REMARKS
IRONWOOD       CLOUDY     7   1  78 N8        30.02S WCI  -6
MANITOWISH WTR CLOUDY     6  -5  61 N7G17     29.98S WCI  -6
ARBOR VITAE    CLOUDY     9  -3  59 N10G17    29.97F WCI  -5
EAGLE RIVER    CLOUDY     6  -7  55 N8        29.96S WCI  -7
LAND O LAKES   LGT SNOW   6  -3  67 N9G16     29.97S WCI  -8
RHINELANDER    PTSUNNY    8  -6  52 NE10      29.97S WCI  -6
PHILLIPS       CLOUDY     6  -4  63 N8        30.01S WCI  -7
ANTIGO         MOSUNNY    7  -5  57 N8        29.96F WCI  -6
TOMAHAWK       PTSUNNY    8  -5  56 N6G16     30.00S WCI  -2
MERRILL        CLOUDY     9  -4  55 N7G16     30.01S WCI  -2
$$

WIZ013-073-101900-
NORTHEAST WISCONSIN

CITY           SKY/WX    TMP DP  RH WIND       PRES   REMARKS
IRON MOUNTAIN  MOSUNNY    8  -6  52 NW16G23   29.95F WCI -10
MARINETTE      SUNNY     12  -6  44 N12G22    29.99S WCI  -2
OCONTO         SUNNY     11  -5  48 NW12      30.01F WCI  -3
$$

WIZ017-030-035>037-045-101900-
CENTRAL WISCONSIN

CITY           SKY/WX    TMP DP  RH WIND       PRES   REMARKS
MEDFORD        CLOUDY     7  -4  61 N3        30.00F
WAUSAU         PTSUNNY   10  -4  53 N9G20     29.99F WCI  -3
MOSINEE        PTSUNNY    9  -2  61 N6        30.01F WCI  -1
MARSHFIELD     MOSUNNY    8  -4  58 NW9       30.01S WCI  -5
WISC RAPIDS    MIX PCPN   9  -4  55 N9        30.04F WCI  -4
STEVENS POINT  CLOUDY     8  -5  57 N7        30.02F WCI  -4
WAUPACA        MOSUNNY   14  -3  45 NW12      30.02F WCI   1
SHAWANO        MOSUNNY   14  -5  43 NW7       30.02F WCI   4
CLINTONVILLE   MOSUNNY   14  -4  44 N9        30.02S WCI   2
WAUTOMA        PTSUNNY   11  -3  53 NW12G18   30.04S WCI  -3
$$

WIZ038-039-048-051-101900-
FOX VALLEY

CITY           SKY/WX    TMP DP  RH WIND       PRES   REMARKS
NWS GREEN BAY  SUNNY     11  -4  51 N14G24    30.01F WCI  -5
APPLETON       MOSUNNY   10  -8  44 NW17      30.00R WCI  -7
OSHKOSH        MOSUNNY   11  -3  53 NW10      30.01F WCI  -3
FOND DU LAC    CLOUDY    11  -3  53 N14       30.01F WCI  -5
$$

WIZ022-050-052-101900-
EAST CENTRAL WISCONSIN

CITY           SKY/WX    TMP DP  RH WIND       PRES   REMARKS
EPHRAIM        FAIR      12  -4  48 N12G21    29.95S WCI  -2
STURGEON BAY   SUNNY     10  -6  48 NW15      30.00S WCI  -6
MANITOWOC      SUNNY     14   0  53 NW14      30.00F WCI  -1
SHEBOYGAN      SUNNY     12  -3  51 NW10      29.99F WCI  -1
$$

LMZ563-521-522-541>543-101900-
LAKESHORE

STATION/POSITION TIME  TEMP    WIND        PRES    VSBY  WAVE
                       AIR SEA DIR/SP/G                  HT/PER
                 (UTC) (F)     (DEG/KT/KT) (MB)    (MI)  (FT/S)
SHEBOYGAN LKSHOR 1800   11     320/ 13/ 16 1017.5F
KEWAUNEE LKSHORE 1700   11     330/ 16/ 23 1015.3R
ALGOMA MARINA    1711          340/ 11/ 16   N/A
CHAMBERS ISLAND  1700   13     310/ 15/ 20 1015.2
MENOMINEE LKSHOR 1700   11     310/ 13     1014.6S
$$




USA.gov is the U.S. government's official web portal to all federal, state and local government web resources and services.